�������l�o���
Date,Time,MP-1(��Sv/h),MP-2(��Sv/h),MP-3(��Sv/h),MP-4(��Sv/h),MP-5(��Sv/h),MP-6(��Sv/h),MP-7(��Sv/h),����,����(m/s),���J
2014/11/25,00:00,0.629,0.399,0.666,0.601,0.590,0.277,0.247,�k,2.1,�L
2014/11/25,00:10,0.629,0.399,0.667,0.601,0.591,0.280,0.246,�k,5.0,��
2014/11/25,00:20,0.630,0.399,0.665,0.602,0.590,0.277,0.246,�k,5.5,�L
2014/11/25,00:30,0.629,0.400,0.665,0.599,0.592,0.278,0.246,�k,4.4,��
2014/11/25,00:40,0.630,0.400,0.666,0.601,0.591,0.279,0.247,�k,4.9,��
2014/11/25,00:50,0.629,0.399,0.666,0.603,0.589,0.278,0.247,�k,5.5,��
2014/11/25,01:00,0.629,0.399,0.667,0.602,0.589,0.278,0.247,�k�k��,4.9,��
2014/11/25,01:10,0.628,0.400,0.664,0.602,0.590,0.278,0.247,�k�k��,5.8,��
2014/11/25,01:20,0.630,0.397,0.665,0.600,0.589,0.278,0.247,�k�k��,5.1,��
2014/11/25,01:30,0.628,0.399,0.664,0.602,0.590,0.277,0.246,�k�k��,6.1,��
2014/11/25,01:40,0.627,0.399,0.666,0.602,0.590,0.277,0.248,�k,6.4,��
2014/11/25,01:50,0.627,0.399,0.666,0.601,0.590,0.278,0.246,�k,5.6,��
2014/11/25,02:00,0.629,0.398,0.667,0.602,0.590,0.278,0.246,�k,5.0,��
2014/11/25,02:10,0.630,0.399,0.666,0.601,0.590,0.277,0.248,�k,3.7,��
2014/11/25,02:20,0.627,0.398,0.667,0.603,0.591,0.278,0.246,�k,2.9,��
2014/11/25,02:30,0.630,0.398,0.666,0.600,0.590,0.277,0.246,�k�k��,3.6,��
2014/11/25,02:40,0.628,0.401,0.665,0.601,0.589,0.279,0.246,�k,3.2,��
2014/11/25,02:50,0.629,0.398,0.666,0.601,0.590,0.277,0.246,�k�k��,2.5,��
2014/11/25,03:00,0.629,0.399,0.665,0.601,0.591,0.277,0.246,�k,3.1,��
2014/11/25,03:10,0.629,0.399,0.667,0.601,0.590,0.278,0.247,�k,3.9,��
2014/11/25,03:20,0.628,0.399,0.665,0.600,0.590,0.277,0.246,�k,3.8,��
2014/11/25,03:30,0.629,0.400,0.664,0.600,0.590,0.277,0.246,�k�k��,3.3,��
2014/11/25,03:40,0.630,0.400,0.666,0.601,0.589,0.277,0.248,�k�k��,3.1,��
2014/11/25,03:50,0.629,0.398,0.666,0.602,0.589,0.277,0.246,�k,2.8,��
2014/11/25,04:00,0.629,0.399,0.666,0.603,0.590,0.277,0.246,�k�k��,2.9,��
2014/11/25,04:10,0.631,0.400,0.666,0.602,0.589,0.276,0.247,�k�k��,3.4,��
2014/11/25,04:20,0.630,0.400,0.665,0.600,0.589,0.277,0.246,�k,2.9,��
2014/11/25,04:30,0.628,0.398,0.664,0.602,0.589,0.277,0.246,�k�k��,3.3,��
2014/11/25,04:40,0.627,0.399,0.665,0.601,0.591,0.277,0.247,�k�k��,2.9,��
2014/11/25,04:50,0.629,0.397,0.666,0.602,0.590,0.276,0.246,�k�k��,2.2,��
2014/11/25,05:00,0.628,0.399,0.666,0.599,0.590,0.277,0.246,�k�k��,2.7,��
2014/11/25,05:10,0.629,0.399,0.667,0.601,0.590,0.276,0.246,�k�k��,2.6,��
2014/11/25,05:20,0.629,0.399,0.666,0.603,0.590,0.276,0.245,�k�k��,2.5,��
2014/11/25,05:30,0.629,0.399,0.665,0.602,0.590,0.277,0.246,�k�k��,2.8,�L
2014/11/25,05:40,0.630,0.399,0.667,0.602,0.589,0.276,0.246,�k,4.0,�L
2014/11/25,05:50,0.630,0.400,0.668,0.601,0.591,0.279,0.247,�k,4.5,�L
2014/11/25,06:00,0.629,0.399,0.665,0.604,0.591,0.278,0.246,�k�k��,4.7,�L
2014/11/25,06:10,0.631,0.402,0.666,0.603,0.591,0.280,0.248,�k�k��,5.6,�L
2014/11/25,06:20,0.631,0.401,0.668,0.603,0.592,0.279,0.248,�k,5.8,�L
2014/11/25,06:30,0.632,0.402,0.668,0.602,0.591,0.280,0.249,�k,5.6,�L
2014/11/25,06:40,0.632,0.403,0.668,0.603,0.591,0.282,0.249,�k�k��,5.4,�L
2014/11/25,06:50,0.634,0.404,0.667,0.604,0.593,0.281,0.251,�k,5.6,�L
2014/11/25,07:00,0.632,0.402,0.668,0.605,0.593,0.282,0.250,�k�k��,5.2,�L
2014/11/25,07:10,0.632,0.404,0.668,0.602,0.589,0.282,0.249,�k�k��,5.0,�L
2014/11/25,07:20,0.630,0.403,0.665,0.601,0.590,0.281,0.251,�k�k��,5.1,�L
2014/11/25,07:30,0.630,0.403,0.667,0.601,0.592,0.281,0.248,�k�k��,5.0,�L
2014/11/25,07:40,0.630,0.402,0.665,0.599,0.588,0.281,0.251,�k�k��,5.0,�L
2014/11/25,07:50,0.629,0.402,0.664,0.599,0.592,0.281,0.248,�k,4.6,�L
2014/11/25,08:00,0.627,0.401,0.661,0.598,0.589,0.282,0.249,�k�k��,4.7,�L
2014/11/25,08:10,0.628,0.401,0.663,0.598,0.591,0.280,0.249,�k�k��,5.0,�L
2014/11/25,08:20,0.628,0.400,0.662,0.598,0.587,0.280,0.247,�k�k��,5.5,�L
2014/11/25,08:30,0.627,0.401,0.660,0.597,0.587,0.280,0.246,�k,5.5,�L
2014/11/25,08:40,0.627,0.400,0.659,0.595,0.587,0.279,0.248,�k�k��,4.9,�L
2014/11/25,08:50,0.626,0.400,0.660,0.594,0.589,0.281,0.247,�k�k��,5.6,�L
2014/11/25,09:00,0.625,0.400,0.660,0.595,0.587,0.280,0.248,�k,6.2,�L
2014/11/25,09:10,0.626,0.400,0.660,0.594,0.588,0.280,0.248,�k�k��,6.3,�L
2014/11/25,09:20,0.627,0.399,0.659,0.596,0.587,0.279,0.247,�k�k��,6.7,�L
2014/11/25,09:30,0.626,0.399,0.656,0.594,0.588,0.279,0.247,�k�k��,6.2,�L
2014/11/25,09:40,0.625,0.399,0.656,0.593,0.589,0.279,0.246,�k�k��,6.9,�L
2014/11/25,09:50,0.625,0.399,0.655,0.594,0.586,0.279,0.246,�k�k��,6.9,�L
2014/11/25,10:00,0.623,0.397,0.656,0.592,0.586,0.279,0.247,�k�k��,7.3,�L
2014/11/25,10:10,0.624,0.399,0.654,0.593,0.586,0.279,0.246,�k�k��,6.6,�L
2014/11/25,10:20,0.621,0.399,0.655,0.591,0.587,0.279,0.246,�k�k��,6.9,�L
2014/11/25,10:30,0.623,0.400,0.654,0.592,0.588,0.280,0.247,�k�k��,6.6,�L
2014/11/25,10:40,0.624,0.398,0.651,0.590,0.588,0.281,0.247,�k�k��,5.8,�L
2014/11/25,10:50,0.622,0.398,0.653,0.590,0.587,0.279,0.246,�k�k��,6.4,�L
2014/11/25,11:00,0.622,0.399,0.652,0.591,0.589,0.280,0.247,�k�k��,6.3,�L
2014/11/25,11:10,0.622,0.399,0.651,0.591,0.586,0.280,0.246,�k,6.9,�L
2014/11/25,11:20,0.620,0.398,0.651,0.588,0.587,0.280,0.245,�k�k��,6.8,�L
2014/11/25,11:30,0.619,0.398,0.649,0.588,0.587,0.280,0.245,�k,6.8,�L
2014/11/25,11:40,0.619,0.399,0.648,0.589,0.588,0.279,0.247,�k,6.4,�L
2014/11/25,11:50,0.620,0.399,0.649,0.588,0.586,0.279,0.245,�k,7.9,�L
2014/11/25,12:00,0.618,0.399,0.647,0.588,0.590,0.280,0.247,�k�k��,6.0,�L
2014/11/25,12:10,0.617,0.397,0.647,0.588,0.587,0.278,0.245,�k,6.8,�L
2014/11/25,12:20,0.618,0.396,0.648,0.586,0.587,0.278,0.243,�k,7.8,�L
2014/11/25,12:30,0.618,0.395,0.647,0.586,0.586,0.277,0.242,�k,6.9,�L
2014/11/25,12:40,0.616,0.394,0.645,0.585,0.584,0.275,0.241,�k�k��,7.5,�L
2014/11/25,12:50,0.616,0.393,0.643,0.584,0.584,0.275,0.242,�k�k��,7.2,�L
2014/11/25,13:00,0.613,0.392,0.643,0.582,0.583,0.273,0.239,�k�k��,7.0,�L
2014/11/25,13:10,0.614,0.393,0.643,0.582,0.583,0.275,0.240,�k�k��,7.0,�L
2014/11/25,13:20,0.614,0.394,0.642,0.582,0.583,0.276,0.240,�k�k��,7.5,�L
2014/11/25,13:30,0.614,0.393,0.643,0.582,0.583,0.275,0.239,�k�k��,7.9,�L
2014/11/25,13:40,0.613,0.392,0.643,0.582,0.584,0.275,0.243,�k�k��,6.9,�L
2014/11/25,13:50,0.613,0.393,0.640,0.580,0.582,0.276,0.243,�k�k��,7.6,�L
2014/11/25,14:00,0.612,0.394,0.641,0.581,0.583,0.276,0.241,�k�k��,7.7,�L
2014/11/25,14:10,0.613,0.393,0.640,0.581,0.583,0.277,0.243,�k�k��,7.8,�L
2014/11/25,14:20,0.613,0.394,0.641,0.580,0.583,0.277,0.242,�k�k��,7.5,�L
2014/11/25,14:30,0.613,0.394,0.641,0.581,0.586,0.277,0.245,�k�k��,7.7,�L
2014/11/25,14:40,0.612,0.395,0.639,0.579,0.585,0.279,0.244,�k�k��,6.9,�L
2014/11/25,14:50,0.614,0.396,0.640,0.579,0.584,0.280,0.246,�k�k��,7.5,�L
2014/11/25,15:00,0.614,0.398,0.640,0.580,0.586,0.281,0.246,�k�k��,6.7,�L
2014/11/25,15:10,0.614,0.397,0.640,0.582,0.586,0.280,0.246,�k�k��,6.3,�L
2014/11/25,15:20,0.613,0.395,0.642,0.578,0.588,0.279,0.246,�k�k��,7.1,�L
2014/11/25,15:30,0.612,0.396,0.642,0.580,0.584,0.278,0.244,�k�k��,6.9,�L
2014/11/25,15:40,0.612,0.397,0.640,0.581,0.585,0.278,0.244,�k�k��,6.4,�L
2014/11/25,15:50,0.611,0.395,0.639,0.578,0.584,0.277,0.243,�k,5.8,�L
2014/11/25,16:00,0.610,0.395,0.638,0.578,0.586,0.275,0.244,�k�k��,5.8,�L
2014/11/25,16:10,0.610,0.395,0.639,0.579,0.584,0.276,0.240,�k�k��,5.8,�L
2014/11/25,16:20,0.610,0.395,0.640,0.579,0.584,0.275,0.242,�k�k��,5.4,�L
2014/11/25,16:30,0.607,0.393,0.638,0.577,0.584,0.274,0.241,�k�k��,5.1,�L
2014/11/25,16:40,0.608,0.393,0.639,0.578,0.583,0.273,0.241,�k,5.3,�L
2014/11/25,16:50,0.608,0.394,0.639,0.579,0.583,0.275,0.240,�k�k��,5.8,�L
2014/11/25,17:00,0.607,0.394,0.639,0.577,0.584,0.274,0.240,�k�k��,5.6,�L
2014/11/25,17:10,0.606,0.393,0.641,0.579,0.583,0.274,0.241,�k�k��,6.1,�L
2014/11/25,17:20,0.606,0.390,0.637,0.579,0.582,0.272,0.240,�k,4.5,�L
2014/11/25,17:30,0.606,0.393,0.637,0.577,0.582,0.273,0.240,�k�k��,4.7,�L
2014/11/25,17:40,0.605,0.393,0.639,0.576,0.582,0.274,0.238,�k��,5.9,�L
2014/11/25,17:50,0.604,0.392,0.637,0.578,0.583,0.271,0.239,�k,4.3,�L
2014/11/25,18:00,0.605,0.391,0.638,0.578,0.582,0.272,0.238,�k,4.0,�L
2014/11/25,18:10,0.603,0.390,0.637,0.576,0.581,0.271,0.236,�k�k��,3.9,�L
2014/11/25,18:20,0.603,0.390,0.637,0.575,0.582,0.271,0.236,�k��,7.8,�L
2014/11/25,18:30,0.605,0.391,0.638,0.578,0.581,0.270,0.237,�k��,8.9,�L
2014/11/25,18:40,0.603,0.391,0.637,0.576,0.581,0.269,0.236,�k��,9.2,�L
2014/11/25,18:50,0.602,0.390,0.636,0.577,0.580,0.270,0.235,�k��,8.7,�L
2014/11/25,19:00,0.602,0.390,0.637,0.576,0.580,0.268,0.236,�k��,9.7,�L
2014/11/25,19:10,0.602,0.390,0.638,0.576,0.581,0.270,0.235,�k��,8.9,�L
2014/11/25,19:20,0.603,0.390,0.638,0.576,0.580,0.269,0.235,�k��,8.9,�L
2014/11/25,19:30,0.603,0.390,0.638,0.577,0.582,0.269,0.234,�k��,8.3,�L
2014/11/25,19:40,0.603,0.390,0.636,0.576,0.581,0.269,0.236,�k�k��,9.4,�L
2014/11/25,19:50,0.603,0.391,0.638,0.577,0.580,0.268,0.236,�k��,9.6,�L
2014/11/25,20:00,0.604,0.391,0.639,0.576,0.583,0.269,0.236,�k��,11.9,�L
2014/11/25,20:10,0.605,0.390,0.637,0.576,0.581,0.268,0.235,�k��,9.6,�L
2014/11/25,20:20,0.605,0.392,0.638,0.577,0.580,0.270,0.235,�k��,10.1,�L
2014/11/25,20:30,0.606,0.391,0.637,0.577,0.582,0.270,0.238,�k��,9.2,�L
2014/11/25,20:40,0.605,0.391,0.636,0.576,0.582,0.268,0.236,�k�k��,9.7,�L
2014/11/25,20:50,0.604,0.390,0.635,0.575,0.581,0.269,0.236,�k��,8.5,�L
2014/11/25,21:00,0.604,0.388,0.635,0.574,0.580,0.269,0.235,�k��,8.1,��
2014/11/25,21:10,0.603,0.389,0.635,0.575,0.580,0.266,0.234,�k��,7.7,��
2014/11/25,21:20,0.604,0.388,0.636,0.574,0.580,0.266,0.232,�k��,7.2,�L
2014/11/25,21:30,0.603,0.389,0.634,0.574,0.578,0.266,0.235,�k��,7.2,�L
2014/11/25,21:40,0.602,0.387,0.635,0.574,0.577,0.266,0.233,�k��,8.6,��
2014/11/25,21:50,0.604,0.387,0.636,0.573,0.578,0.265,0.232,�k��,9.8,��
2014/11/25,22:00,0.604,0.388,0.632,0.574,0.578,0.265,0.231,�k��,10.6,�L
2014/11/25,22:10,0.605,0.388,0.636,0.574,0.579,0.265,0.232,�k��,10.4,�L
2014/11/25,22:20,0.605,0.390,0.635,0.575,0.580,0.267,0.232,�k�k��,10.4,�L
2014/11/25,22:30,0.606,0.389,0.636,0.575,0.580,0.268,0.235,�k��,11.5,�L
2014/11/25,22:40,0.606,0.390,0.636,0.577,0.580,0.267,0.235,�k��,9.8,�L
2014/11/25,22:50,0.605,0.389,0.638,0.576,0.580,0.267,0.235,�k��,9.1,�L
2014/11/25,23:00,0.605,0.389,0.638,0.576,0.581,0.267,0.236,�k��,10.4,�L
2014/11/25,23:10,0.606,0.390,0.636,0.575,0.579,0.267,0.234,�k��,9.3,�L
2014/11/25,23:20,0.605,0.388,0.635,0.576,0.579,0.266,0.234,�k��,9.8,��
2014/11/25,23:30,0.607,0.388,0.637,0.574,0.579,0.265,0.233,�k��,9.8,��
2014/11/25,23:40,0.605,0.388,0.636,0.573,0.578,0.266,0.233,�k��,9.2,��
2014/11/25,23:50,0.604,0.387,0.636,0.575,0.579,0.266,0.233,�k��,9.8,��
